Torna al catalogo

SDGSAT 1

AttivoScienzaSSO
NORAD 49387·PAYLOAD·🇨🇳 China

Lanciato Nov 5, 2021 da Taiyuan Satellite Launch Center

Loading…

Prossimi Passaggi (prossime 24 ore)

TLE

AggiornatoSource: Space-Track

Epoca: Sep 14, 2026, 14:30 UTC

1 49387U 21100A   26257.60481480  .00001549  00000-0  76039-4 0  9996
2 49387  97.2549 301.1154 0008481 328.1895  31.8827 15.19478681269490

Traccia SDGSAT 1 in tempo reale con AllMySat

Download on the App Store